Year,Month,Day,Hour,Minute,Value (Times are PST for temperature in C)
2011,10,17,00,00,5.40
2011,10,17,00,01,5.30
2011,10,17,00,02,5.30
2011,10,17,00,03,5.30
2011,10,17,00,04,5.30
2011,10,17,00,05,5.20
2011,10,17,00,06,5.20
2011,10,17,00,07,5.20
2011,10,17,00,08,5.20
2011,10,17,00,09,5.20
2011,10,17,00,10,5.20
2011,10,17,00,11,5.10
2011,10,17,00,12,5.10
2011,10,17,00,13,5.10
2011,10,17,00,14,5.10
2011,10,17,00,15,5.10
2011,10,17,00,16,5.10
2011,10,17,00,17,5.10
2011,10,17,00,18,5.00
2011,10,17,00,19,5.00
2011,10,17,00,20,5.00
2011,10,17,00,21,5.00
2011,10,17,00,22,5.00
2011,10,17,00,23,4.90
2011,10,17,00,24,4.90
2011,10,17,00,25,4.90
2011,10,17,00,26,4.90
2011,10,17,00,27,4.80
2011,10,17,00,28,4.80
2011,10,17,00,29,4.80
2011,10,17,00,30,4.80
2011,10,17,00,31,4.70
2011,10,17,00,32,4.70
2011,10,17,00,33,4.70
2011,10,17,00,34,4.70
2011,10,17,00,35,4.60
2011,10,17,00,36,4.60
2011,10,17,00,37,4.60
2011,10,17,00,38,4.60
2011,10,17,00,39,4.60
2011,10,17,00,40,4.60
2011,10,17,00,41,4.60
2011,10,17,00,42,4.50
2011,10,17,00,43,4.50
2011,10,17,00,44,4.50
2011,10,17,00,45,4.50
2011,10,17,00,46,4.50
2011,10,17,00,47,4.50
2011,10,17,00,48,4.50
2011,10,17,00,49,4.50
2011,10,17,00,50,4.50
2011,10,17,00,51,4.50
2011,10,17,00,52,4.50
2011,10,17,00,53,4.50
2011,10,17,00,54,4.50
2011,10,17,00,55,4.50
2011,10,17,00,56,4.50
2011,10,17,00,57,4.50
2011,10,17,00,58,4.50
2011,10,17,00,59,4.40
2011,10,17,01,00,4.40
2011,10,17,01,01,4.40
2011,10,17,01,02,4.40
2011,10,17,01,03,4.40
2011,10,17,01,04,4.40
2011,10,17,01,05,4.40
2011,10,17,01,06,4.30
2011,10,17,01,07,4.30
2011,10,17,01,08,4.30
2011,10,17,01,09,4.30
2011,10,17,01,10,4.30
2011,10,17,01,11,4.30
2011,10,17,01,12,4.30
2011,10,17,01,13,4.30
2011,10,17,01,14,4.30
2011,10,17,01,15,4.30
2011,10,17,01,16,4.30
2011,10,17,01,17,4.30
2011,10,17,01,18,4.30
2011,10,17,01,19,4.30
2011,10,17,01,20,4.40
2011,10,17,01,21,4.40
2011,10,17,01,22,4.40
2011,10,17,01,23,4.40
2011,10,17,01,24,4.40
2011,10,17,01,25,4.40
2011,10,17,01,26,4.40
2011,10,17,01,27,4.40
2011,10,17,01,28,4.40
2011,10,17,01,29,4.50
2011,10,17,01,30,4.50
2011,10,17,01,31,4.50
2011,10,17,01,32,4.50
2011,10,17,01,33,4.50
2011,10,17,01,34,4.60
2011,10,17,01,35,4.60
2011,10,17,01,36,4.60
2011,10,17,01,37,4.60
2011,10,17,01,38,4.60
2011,10,17,01,39,4.70
2011,10,17,01,40,4.70
2011,10,17,01,41,4.70
2011,10,17,01,42,4.70
2011,10,17,01,43,4.70
2011,10,17,01,44,4.70
2011,10,17,01,45,4.70
2011,10,17,01,46,4.80
2011,10,17,01,47,4.80
2011,10,17,01,48,4.80
2011,10,17,01,49,4.80
2011,10,17,01,50,4.80
2011,10,17,01,51,4.80
2011,10,17,01,52,4.80
2011,10,17,01,53,4.80
2011,10,17,01,54,4.90
2011,10,17,01,55,4.90
2011,10,17,01,56,4.90
2011,10,17,01,57,4.90
2011,10,17,01,58,4.90
2011,10,17,01,59,4.90
2011,10,17,02,00,4.90
2011,10,17,02,01,4.90
2011,10,17,02,02,4.90
2011,10,17,02,03,4.90
2011,10,17,02,04,4.90
2011,10,17,02,05,4.90
2011,10,17,02,06,5.00
2011,10,17,02,07,5.00
2011,10,17,02,08,5.00
2011,10,17,02,09,5.00
2011,10,17,02,10,5.00
2011,10,17,02,11,5.00
2011,10,17,02,12,5.10
2011,10,17,02,13,5.10
2011,10,17,02,14,5.10
2011,10,17,02,15,5.10
2011,10,17,02,16,5.10
2011,10,17,02,17,5.10
2011,10,17,02,18,5.10
2011,10,17,02,19,5.10
2011,10,17,02,20,5.10
2011,10,17,02,21,5.10
2011,10,17,02,22,5.10
2011,10,17,02,23,5.10
2011,10,17,02,24,5.10
2011,10,17,02,25,5.10
2011,10,17,02,26,5.10
2011,10,17,02,27,5.10
2011,10,17,02,28,5.10
2011,10,17,02,29,5.20
2011,10,17,02,30,5.20
2011,10,17,02,31,5.20
2011,10,17,02,32,5.20
2011,10,17,02,33,5.20
2011,10,17,02,34,5.20
2011,10,17,02,35,5.20
2011,10,17,02,36,5.20
2011,10,17,02,37,5.20
2011,10,17,02,38,5.20
2011,10,17,02,39,5.30
2011,10,17,02,40,5.30
2011,10,17,02,41,5.30
2011,10,17,02,42,5.30
2011,10,17,02,43,5.30
2011,10,17,02,44,5.30
2011,10,17,02,45,5.30
2011,10,17,02,46,5.30
2011,10,17,02,47,5.30
2011,10,17,02,48,5.30
2011,10,17,02,49,5.40
2011,10,17,02,50,5.40
2011,10,17,02,51,5.40
2011,10,17,02,52,5.40
2011,10,17,02,53,5.50
2011,10,17,02,54,5.50
2011,10,17,02,55,5.60
2011,10,17,02,56,5.60
2011,10,17,02,57,5.60
2011,10,17,02,58,5.60
2011,10,17,02,59,5.60
2011,10,17,03,00,5.70
2011,10,17,03,01,5.70
2011,10,17,03,02,5.70
2011,10,17,03,06,5.70
2011,10,17,03,07,5.70
2011,10,17,03,08,5.70
2011,10,17,03,09,5.70
2011,10,17,03,10,5.70
2011,10,17,03,11,5.70
2011,10,17,03,12,5.70
2011,10,17,03,13,5.70
2011,10,17,03,14,5.70
2011,10,17,03,15,5.80
2011,10,17,03,16,5.80
2011,10,17,03,17,5.80
2011,10,17,03,18,5.80
2011,10,17,03,19,5.80
2011,10,17,03,20,5.80
2011,10,17,03,21,5.80
2011,10,17,03,22,5.80
2011,10,17,03,23,5.80
2011,10,17,03,24,5.80
2011,10,17,03,25,5.80
2011,10,17,03,26,5.80
2011,10,17,03,27,5.80
2011,10,17,03,28,5.80
2011,10,17,03,29,5.80
2011,10,17,03,30,5.80
2011,10,17,03,31,5.80
2011,10,17,03,32,5.80
2011,10,17,03,33,5.80
2011,10,17,03,34,5.80
2011,10,17,03,35,5.80
2011,10,17,03,36,5.80
2011,10,17,03,37,5.80
2011,10,17,03,38,5.80
2011,10,17,03,39,5.80
2011,10,17,03,40,5.80
2011,10,17,03,41,5.80
2011,10,17,03,42,5.80
2011,10,17,03,43,5.80
2011,10,17,03,44,5.80
2011,10,17,03,45,5.80
2011,10,17,03,46,5.80
2011,10,17,03,47,5.80
2011,10,17,03,49,5.80
2011,10,17,03,50,5.80
2011,10,17,03,51,5.80
2011,10,17,03,52,5.90
2011,10,17,03,53,5.90
2011,10,17,03,54,5.90
2011,10,17,03,55,5.90
2011,10,17,03,56,5.90
2011,10,17,03,57,5.90
2011,10,17,03,58,5.90
2011,10,17,03,59,5.90
2011,10,17,04,00,5.90
2011,10,17,04,01,5.90
2011,10,17,04,02,5.90
2011,10,17,04,03,5.90
2011,10,17,04,04,5.90
2011,10,17,04,05,5.90
2011,10,17,04,06,5.90
2011,10,17,04,07,5.90
2011,10,17,04,08,5.80
2011,10,17,04,09,5.80
2011,10,17,04,10,5.80
2011,10,17,04,11,5.80
2011,10,17,04,12,5.80
2011,10,17,04,13,5.80
2011,10,17,04,14,5.80
2011,10,17,04,15,5.80
2011,10,17,04,16,5.90
2011,10,17,04,17,5.90
2011,10,17,04,18,5.90
2011,10,17,04,19,5.90
2011,10,17,04,20,5.90
2011,10,17,04,21,5.90
2011,10,17,04,22,5.90
2011,10,17,04,23,6.00
2011,10,17,04,24,6.00
2011,10,17,04,25,6.00
2011,10,17,04,26,6.00
2011,10,17,04,27,6.10
2011,10,17,04,28,6.10
2011,10,17,04,29,6.10
2011,10,17,04,30,6.10
2011,10,17,04,31,6.10
2011,10,17,04,32,6.10
2011,10,17,04,33,6.10
2011,10,17,04,34,6.10
2011,10,17,04,35,6.10
2011,10,17,04,36,6.10
2011,10,17,04,37,6.10
2011,10,17,04,38,6.10
2011,10,17,04,39,6.10
2011,10,17,04,40,6.20
2011,10,17,04,41,6.20
2011,10,17,04,42,6.20
2011,10,17,04,43,6.20
2011,10,17,04,44,6.20
2011,10,17,04,45,6.20
2011,10,17,04,46,6.20
2011,10,17,04,47,6.20
2011,10,17,04,48,6.20
2011,10,17,04,49,6.20
2011,10,17,04,50,6.20
2011,10,17,04,51,6.20
2011,10,17,04,52,6.20
2011,10,17,04,53,6.20
2011,10,17,04,54,6.20
2011,10,17,04,55,6.20
2011,10,17,04,56,6.20
2011,10,17,04,57,6.20
2011,10,17,04,58,6.20
2011,10,17,04,59,6.20
2011,10,17,05,00,6.20
2011,10,17,05,01,6.20
2011,10,17,05,02,6.30
2011,10,17,05,03,6.30
2011,10,17,05,04,6.30
2011,10,17,05,05,6.30
2011,10,17,05,06,6.30
2011,10,17,05,07,6.30
2011,10,17,05,08,6.30
2011,10,17,05,09,6.30
2011,10,17,05,10,6.30
2011,10,17,05,11,6.20
2011,10,17,05,12,6.20
2011,10,17,05,13,6.20
2011,10,17,05,14,6.20
2011,10,17,05,15,6.20
2011,10,17,05,16,6.20
2011,10,17,05,17,6.20
2011,10,17,05,18,6.20
2011,10,17,05,19,6.20
2011,10,17,05,20,6.20
2011,10,17,05,21,6.20
2011,10,17,05,22,6.20
2011,10,17,05,23,6.20
2011,10,17,05,24,6.20
2011,10,17,05,25,6.10
2011,10,17,05,26,6.10
2011,10,17,05,27,6.10
2011,10,17,05,28,6.10
2011,10,17,05,29,6.00
2011,10,17,05,30,6.00
2011,10,17,05,31,6.00
2011,10,17,05,32,5.90
2011,10,17,05,33,5.90
2011,10,17,05,34,5.90
2011,10,17,05,35,5.90
2011,10,17,05,36,5.90
2011,10,17,05,37,5.90
2011,10,17,05,38,5.90
2011,10,17,05,39,5.80
2011,10,17,05,40,5.80
2011,10,17,05,41,5.80
2011,10,17,05,42,5.80
2011,10,17,05,43,5.80
2011,10,17,05,44,5.80
2011,10,17,05,45,5.80
2011,10,17,05,46,5.80
2011,10,17,05,47,5.80
2011,10,17,05,48,5.70
2011,10,17,05,49,5.70
2011,10,17,05,50,5.70
2011,10,17,05,51,5.70
2011,10,17,05,52,5.70
2011,10,17,05,53,5.70
2011,10,17,05,54,5.70
2011,10,17,05,55,5.70
2011,10,17,05,56,5.60
2011,10,17,05,57,5.60
2011,10,17,05,58,5.60
2011,10,17,05,59,5.60
2011,10,17,06,00,5.60
2011,10,17,06,01,5.50
2011,10,17,06,02,5.50
2011,10,17,06,03,5.50
2011,10,17,06,04,5.40
2011,10,17,06,05,5.40
2011,10,17,06,06,5.40
2011,10,17,06,07,5.40
2011,10,17,06,08,5.40
2011,10,17,06,09,5.30
2011,10,17,06,10,5.30
2011,10,17,06,11,5.30
2011,10,17,06,12,5.30
2011,10,17,06,13,5.30
2011,10,17,06,14,5.30
2011,10,17,06,15,5.20
2011,10,17,06,16,5.20
2011,10,17,06,17,5.20
2011,10,17,06,18,5.20
2011,10,17,06,19,5.10
2011,10,17,06,20,5.10
2011,10,17,06,21,5.10
2011,10,17,06,22,5.10
2011,10,17,06,23,5.10
2011,10,17,06,24,5.10
2011,10,17,06,25,5.10
2011,10,17,06,26,5.10
2011,10,17,06,27,5.10
2011,10,17,06,28,5.10
2011,10,17,06,29,5.00
2011,10,17,06,30,5.00
2011,10,17,06,31,5.00
2011,10,17,06,32,4.90
2011,10,17,06,33,4.90
2011,10,17,06,34,4.90
2011,10,17,06,35,4.90
2011,10,17,06,36,4.90
2011,10,17,06,37,4.80
2011,10,17,06,38,4.80
2011,10,17,06,39,4.80
2011,10,17,06,40,4.80
2011,10,17,06,41,4.80
2011,10,17,06,42,4.80
2011,10,17,06,43,4.70
2011,10,17,06,44,4.70
2011,10,17,06,45,4.70
2011,10,17,06,46,4.70
2011,10,17,06,47,4.70
2011,10,17,06,48,4.70
2011,10,17,06,49,4.70
2011,10,17,06,50,4.60
2011,10,17,06,51,4.60
2011,10,17,06,52,4.60
2011,10,17,06,53,4.60
2011,10,17,06,54,4.60
2011,10,17,06,55,4.60
2011,10,17,06,56,4.60
2011,10,17,06,57,4.70
2011,10,17,06,58,4.70
2011,10,17,06,59,4.70
2011,10,17,07,00,4.70
2011,10,17,07,01,4.70
2011,10,17,07,02,4.70
2011,10,17,07,03,4.70
2011,10,17,07,04,4.80
2011,10,17,07,05,4.80
2011,10,17,07,06,4.80
2011,10,17,07,07,4.80
2011,10,17,07,08,4.80
2011,10,17,07,09,4.80
2011,10,17,07,10,4.80
2011,10,17,07,11,4.80
2011,10,17,07,12,4.80
2011,10,17,07,13,4.90
2011,10,17,07,14,4.90
2011,10,17,07,15,5.00
2011,10,17,07,16,5.00
2011,10,17,07,17,5.00
2011,10,17,07,18,5.10
2011,10,17,07,19,5.10
2011,10,17,07,20,5.10
2011,10,17,07,21,5.10
2011,10,17,07,22,5.10
2011,10,17,07,23,5.10
2011,10,17,07,24,5.20
2011,10,17,07,25,5.20
2011,10,17,07,26,5.20
2011,10,17,07,27,5.20
2011,10,17,07,28,5.20
2011,10,17,07,29,5.20
2011,10,17,07,30,5.20
2011,10,17,07,31,5.20
2011,10,17,07,32,5.20
2011,10,17,07,33,5.20
2011,10,17,07,34,5.20
2011,10,17,07,35,5.20
2011,10,17,07,36,5.20
2011,10,17,07,37,5.20
2011,10,17,07,38,5.20
2011,10,17,07,39,5.20
2011,10,17,07,40,5.20
2011,10,17,07,41,5.20
2011,10,17,07,42,5.30
2011,10,17,07,43,5.20
2011,10,17,07,44,5.20
2011,10,17,07,45,5.30
2011,10,17,07,46,5.30
2011,10,17,07,47,5.30
2011,10,17,07,48,5.30
2011,10,17,07,49,5.30
2011,10,17,07,50,5.30
2011,10,17,07,51,5.30
2011,10,17,07,52,5.30
2011,10,17,07,53,5.30
2011,10,17,07,54,5.30
2011,10,17,07,55,5.30
2011,10,17,07,56,5.30
2011,10,17,07,57,5.30
2011,10,17,07,58,5.30
2011,10,17,07,59,5.30
2011,10,17,08,00,5.30
2011,10,17,08,01,5.30
2011,10,17,08,02,5.30
2011,10,17,08,03,5.30
2011,10,17,08,04,5.30
2011,10,17,08,05,5.30
2011,10,17,08,06,5.30
2011,10,17,08,07,5.30
2011,10,17,08,08,5.30
2011,10,17,08,09,5.30
2011,10,17,08,10,5.30
2011,10,17,08,11,5.30
2011,10,17,08,12,5.30
2011,10,17,08,13,5.30
2011,10,17,08,14,5.30
2011,10,17,08,15,5.30
2011,10,17,08,16,5.30
2011,10,17,08,17,5.40
2011,10,17,08,18,5.40
2011,10,17,08,19,5.40
2011,10,17,08,20,5.40
2011,10,17,08,21,5.40
2011,10,17,08,22,5.40
2011,10,17,08,23,5.40
2011,10,17,08,24,5.40
2011,10,17,08,25,5.40
2011,10,17,08,26,5.40
2011,10,17,08,27,5.50
2011,10,17,08,28,5.50
2011,10,17,08,29,5.50
2011,10,17,08,30,5.50
2011,10,17,08,31,5.50
2011,10,17,08,32,5.50
2011,10,17,08,33,5.50
2011,10,17,08,34,5.60
2011,10,17,08,35,5.60
2011,10,17,08,36,5.60
2011,10,17,08,37,5.60
2011,10,17,08,38,5.60
2011,10,17,08,39,5.60
2011,10,17,08,40,5.60
2011,10,17,08,41,5.70
2011,10,17,08,42,5.70
2011,10,17,08,43,5.70
2011,10,17,08,44,5.70
2011,10,17,08,45,5.70
2011,10,17,08,46,5.70
2011,10,17,08,47,5.80
2011,10,17,08,48,5.80
2011,10,17,08,49,5.80
2011,10,17,08,50,5.80
2011,10,17,08,51,5.80
2011,10,17,08,52,5.80
2011,10,17,08,53,5.80
2011,10,17,08,54,5.80
2011,10,17,08,55,5.80
2011,10,17,08,56,5.80
2011,10,17,08,57,5.80
2011,10,17,08,58,5.90
2011,10,17,08,59,5.90
2011,10,17,09,00,5.90
2011,10,17,09,01,5.90
2011,10,17,09,02,5.90
2011,10,17,09,03,6.00
2011,10,17,09,04,6.00
2011,10,17,09,05,6.00
2011,10,17,09,06,6.00
2011,10,17,09,07,6.10
2011,10,17,09,08,6.10
2011,10,17,09,09,6.10
2011,10,17,09,10,6.20
2011,10,17,09,11,6.20
2011,10,17,09,12,6.20
2011,10,17,09,13,6.20
2011,10,17,09,14,6.30
2011,10,17,09,15,6.30
2011,10,17,09,16,6.30
2011,10,17,09,17,6.30
2011,10,17,09,18,6.40
2011,10,17,09,19,6.40
2011,10,17,09,20,6.40
2011,10,17,09,21,6.40
2011,10,17,09,22,6.40
2011,10,17,09,23,6.50
2011,10,17,09,24,6.50
2011,10,17,09,25,6.50
2011,10,17,09,26,6.60
2011,10,17,09,27,6.60
2011,10,17,09,28,6.60
2011,10,17,09,29,6.60
2011,10,17,09,30,6.60
2011,10,17,09,31,6.60
2011,10,17,09,32,6.60
2011,10,17,09,33,6.70
2011,10,17,09,34,6.70
2011,10,17,09,35,6.70
2011,10,17,09,36,6.70
2011,10,17,09,37,6.70
2011,10,17,09,38,6.70
2011,10,17,09,39,6.70
2011,10,17,09,40,6.80
2011,10,17,09,41,6.80
2011,10,17,09,42,6.80
2011,10,17,09,43,6.80
2011,10,17,09,44,6.80
2011,10,17,09,45,6.80
2011,10,17,09,46,6.80
2011,10,17,09,47,6.80
2011,10,17,09,48,6.80
2011,10,17,09,49,6.80
2011,10,17,09,50,6.90
2011,10,17,09,51,6.90
2011,10,17,09,52,6.90
2011,10,17,09,53,7.00
2011,10,17,09,54,7.00
2011,10,17,09,55,7.10
2011,10,17,09,56,7.10
2011,10,17,09,57,7.20
2011,10,17,09,58,7.20
2011,10,17,09,59,7.20
2011,10,17,10,00,7.20
2011,10,17,10,01,7.20
2011,10,17,10,02,7.20
2011,10,17,10,03,7.30
2011,10,17,10,04,7.30
2011,10,17,10,05,7.30
2011,10,17,10,06,7.40
2011,10,17,10,07,7.40
2011,10,17,10,08,7.40
2011,10,17,10,09,7.50
2011,10,17,10,10,7.50
2011,10,17,10,11,7.60
2011,10,17,10,12,7.60
2011,10,17,10,13,7.60
2011,10,17,10,14,7.60
2011,10,17,10,15,7.70
2011,10,17,10,16,7.70
2011,10,17,10,17,7.70
2011,10,17,10,18,7.80
2011,10,17,10,19,7.80
2011,10,17,10,20,7.80
2011,10,17,10,21,7.90
2011,10,17,10,22,7.90
2011,10,17,10,23,8.00
2011,10,17,10,24,8.00
2011,10,17,10,25,8.10
2011,10,17,10,26,8.10
2011,10,17,10,27,8.10
2011,10,17,10,28,8.10
2011,10,17,10,29,8.10
2011,10,17,10,30,8.20
2011,10,17,10,31,8.20
2011,10,17,10,32,8.20
2011,10,17,10,33,8.20
2011,10,17,10,34,8.30
2011,10,17,10,35,8.30
2011,10,17,10,36,8.30
2011,10,17,10,37,8.40
2011,10,17,10,38,8.40
2011,10,17,10,39,8.40
2011,10,17,10,40,8.50
2011,10,17,10,41,8.50
2011,10,17,10,42,8.50
2011,10,17,10,43,8.60
2011,10,17,10,44,8.60
2011,10,17,10,45,8.60
2011,10,17,10,46,8.70
2011,10,17,10,47,8.70
2011,10,17,10,48,8.70
2011,10,17,10,49,8.80
2011,10,17,10,50,8.80
2011,10,17,10,51,8.80
2011,10,17,10,52,8.80
2011,10,17,10,53,8.80
2011,10,17,10,54,8.90
2011,10,17,10,55,8.90
2011,10,17,10,56,8.90
2011,10,17,10,57,9.00
2011,10,17,10,58,9.00
2011,10,17,10,59,9.10
2011,10,17,11,00,9.10
2011,10,17,11,01,9.20
2011,10,17,11,02,9.20
2011,10,17,11,03,9.30
2011,10,17,11,04,9.30
2011,10,17,11,05,9.40
2011,10,17,11,06,9.40
2011,10,17,11,07,9.50
2011,10,17,11,08,9.60
2011,10,17,11,09,9.60
2011,10,17,11,10,9.70
2011,10,17,11,11,9.80
2011,10,17,11,12,9.80
2011,10,17,11,13,9.90
2011,10,17,11,14,9.90
2011,10,17,11,15,10.00
2011,10,17,11,16,10.00
2011,10,17,11,17,10.10
2011,10,17,11,18,10.10
2011,10,17,11,19,10.10
2011,10,17,11,20,10.20
2011,10,17,11,21,10.20
2011,10,17,11,22,10.30
2011,10,17,11,23,10.30
2011,10,17,11,24,10.30
2011,10,17,11,25,10.30
2011,10,17,11,26,10.30
2011,10,17,11,27,10.40
2011,10,17,11,28,10.40
2011,10,17,11,29,10.40
2011,10,17,11,30,10.50
2011,10,17,11,31,10.50
2011,10,17,11,32,10.60
2011,10,17,11,33,10.60
2011,10,17,11,34,10.60
2011,10,17,11,35,10.60
2011,10,17,11,36,10.60
2011,10,17,11,37,10.60
2011,10,17,11,38,10.60
2011,10,17,11,39,10.60
2011,10,17,11,40,10.60
2011,10,17,11,41,10.70
2011,10,17,11,42,10.70
2011,10,17,11,43,10.70
2011,10,17,11,44,10.70
2011,10,17,11,45,10.70
2011,10,17,11,46,10.60
2011,10,17,11,47,10.60
2011,10,17,11,48,10.70
2011,10,17,11,49,10.70
2011,10,17,11,50,10.70
2011,10,17,11,51,10.70
2011,10,17,11,52,10.80
2011,10,17,11,53,10.80
2011,10,17,11,54,10.70
2011,10,17,11,55,10.70
2011,10,17,11,56,10.70
2011,10,17,11,57,10.70
2011,10,17,11,58,10.70
2011,10,17,11,59,10.70
2011,10,17,12,00,10.70
2011,10,17,12,01,10.70
2011,10,17,12,02,10.70
2011,10,17,12,03,10.70
2011,10,17,12,04,10.80
2011,10,17,12,05,10.80
2011,10,17,12,06,10.80
2011,10,17,12,07,10.80
2011,10,17,12,08,10.90
2011,10,17,12,09,10.90
2011,10,17,12,10,11.00
2011,10,17,12,11,11.10
2011,10,17,12,12,11.10
2011,10,17,12,13,11.20
2011,10,17,12,14,11.20
2011,10,17,12,15,11.20
2011,10,17,12,16,11.30
2011,10,17,12,17,11.30
2011,10,17,12,18,11.30
2011,10,17,12,19,11.40
2011,10,17,12,20,11.40
2011,10,17,12,21,11.40
2011,10,17,12,22,11.40
2011,10,17,12,23,11.40
2011,10,17,12,24,11.40
2011,10,17,12,25,11.40
2011,10,17,12,26,11.40
2011,10,17,12,27,11.40
2011,10,17,12,28,11.40
2011,10,17,12,29,11.50
2011,10,17,12,30,11.50
2011,10,17,12,31,11.50
2011,10,17,12,32,11.50
2011,10,17,12,33,11.50
2011,10,17,12,34,11.60
2011,10,17,12,35,11.60
2011,10,17,12,36,11.60
2011,10,17,12,37,11.70
2011,10,17,12,38,11.70
2011,10,17,12,39,11.80
2011,10,17,12,40,11.90
2011,10,17,12,41,12.00
2011,10,17,12,42,12.00
2011,10,17,12,43,12.10
2011,10,17,12,44,12.20
2011,10,17,12,45,12.30
2011,10,17,12,46,12.40
2011,10,17,12,47,12.40
2011,10,17,12,48,12.30
2011,10,17,12,49,12.30
2011,10,17,12,50,12.30
2011,10,17,12,51,12.30
2011,10,17,12,52,12.30
2011,10,17,12,53,12.30
2011,10,17,12,54,12.30
2011,10,17,12,55,12.40
2011,10,17,12,56,12.40
2011,10,17,12,57,12.40
2011,10,17,12,58,12.40
2011,10,17,12,59,12.50
2011,10,17,13,00,12.50
2011,10,17,13,01,12.50
2011,10,17,13,02,12.50
2011,10,17,13,03,12.50
2011,10,17,13,04,12.60
2011,10,17,13,05,12.60
2011,10,17,13,06,12.60
2011,10,17,13,07,12.60
2011,10,17,13,08,12.70
2011,10,17,13,09,12.70
2011,10,17,13,10,12.70
2011,10,17,13,11,12.70
2011,10,17,13,12,12.60
2011,10,17,13,13,12.60
2011,10,17,13,14,12.60
2011,10,17,13,15,12.60
2011,10,17,13,16,12.60
2011,10,17,13,17,12.70
2011,10,17,13,18,12.70
2011,10,17,13,19,12.70
2011,10,17,13,20,12.70
2011,10,17,13,21,12.70
2011,10,17,13,22,12.70
2011,10,17,13,23,12.60
2011,10,17,13,24,12.50
2011,10,17,13,25,12.50
2011,10,17,13,26,12.50
2011,10,17,13,27,12.60
2011,10,17,13,28,12.60
2011,10,17,13,29,12.70
2011,10,17,13,30,12.70
2011,10,17,13,31,12.80
2011,10,17,13,32,12.80
2011,10,17,13,33,12.80
2011,10,17,13,34,12.90
2011,10,17,13,35,12.90
2011,10,17,13,36,12.90
2011,10,17,13,37,12.90
2011,10,17,13,38,12.90
2011,10,17,13,39,12.80
2011,10,17,13,40,12.80
2011,10,17,13,41,12.80
2011,10,17,13,42,12.80
2011,10,17,13,43,12.70
2011,10,17,13,44,12.70
2011,10,17,13,45,12.60
2011,10,17,13,46,12.60
2011,10,17,13,47,12.60
2011,10,17,13,48,12.60
2011,10,17,13,49,12.60
2011,10,17,13,50,12.70
2011,10,17,13,51,12.70
2011,10,17,13,52,12.80
2011,10,17,13,53,12.80
2011,10,17,13,54,12.90
2011,10,17,13,55,12.90
2011,10,17,13,56,13.00
2011,10,17,13,57,13.10
2011,10,17,13,58,13.10
2011,10,17,13,59,13.20
2011,10,17,14,00,13.20
2011,10,17,14,01,13.20
2011,10,17,14,02,13.30
2011,10,17,14,03,13.30
2011,10,17,14,04,13.30
2011,10,17,14,05,13.40
2011,10,17,14,06,13.40
2011,10,17,14,07,13.50
2011,10,17,14,08,13.50
2011,10,17,14,09,13.50
2011,10,17,14,10,13.60
2011,10,17,14,11,13.60
2011,10,17,14,12,13.60
2011,10,17,14,13,13.60
2011,10,17,14,14,13.70
2011,10,17,14,15,13.70
2011,10,17,14,16,13.70
2011,10,17,14,17,13.80
2011,10,17,14,18,13.80
2011,10,17,14,19,13.80
2011,10,17,14,20,13.90
2011,10,17,14,21,14.00
2011,10,17,14,22,14.00
2011,10,17,14,23,14.10
2011,10,17,14,24,14.10
2011,10,17,14,25,14.20
2011,10,17,14,26,14.20
2011,10,17,14,27,14.20
2011,10,17,14,28,14.20
2011,10,17,14,29,14.20
2011,10,17,14,30,14.10
2011,10,17,14,31,14.00
2011,10,17,14,32,13.90
2011,10,17,14,33,13.80
2011,10,17,14,34,13.70
2011,10,17,14,35,13.60
2011,10,17,14,36,13.50
2011,10,17,14,37,13.40
2011,10,17,14,38,13.30
2011,10,17,14,39,13.30
2011,10,17,14,40,13.20
2011,10,17,14,41,13.20
2011,10,17,14,42,13.10
2011,10,17,14,43,13.10
2011,10,17,14,44,13.10
2011,10,17,14,45,13.00
2011,10,17,14,46,13.00
2011,10,17,14,47,12.90
2011,10,17,14,48,12.90
2011,10,17,14,49,13.00
2011,10,17,14,50,13.10
2011,10,17,14,51,13.20
2011,10,17,14,52,13.30
2011,10,17,14,53,13.30
2011,10,17,14,54,13.50
2011,10,17,14,55,13.50
2011,10,17,14,56,13.60
2011,10,17,14,57,13.70
2011,10,17,14,58,13.80
2011,10,17,14,59,14.00
2011,10,17,15,00,14.10
2011,10,17,15,01,14.20
2011,10,17,15,02,14.20
2011,10,17,15,03,14.30
2011,10,17,15,04,14.40
2011,10,17,15,05,14.50
2011,10,17,15,06,14.60
2011,10,17,15,07,14.70
2011,10,17,15,08,14.80
2011,10,17,15,09,15.00
2011,10,17,15,10,15.00
2011,10,17,15,11,15.00
2011,10,17,15,12,15.00
2011,10,17,15,13,15.00
2011,10,17,15,14,15.00
2011,10,17,15,15,15.10
2011,10,17,15,16,15.10
2011,10,17,15,17,15.10
2011,10,17,15,18,15.10
2011,10,17,15,19,15.10
2011,10,17,15,20,15.10
2011,10,17,15,21,15.10
2011,10,17,15,22,15.10
2011,10,17,15,23,15.00
2011,10,17,15,24,15.00
2011,10,17,15,25,15.00
2011,10,17,15,26,15.00
2011,10,17,15,27,15.00
2011,10,17,15,28,15.00
2011,10,17,15,29,15.00
2011,10,17,15,30,15.00
2011,10,17,15,31,14.90
2011,10,17,15,32,14.80
2011,10,17,15,33,14.80
2011,10,17,15,34,14.70
2011,10,17,15,35,14.70
2011,10,17,15,36,14.70
2011,10,17,15,37,14.70
2011,10,17,15,38,14.80
2011,10,17,15,39,14.80
2011,10,17,15,40,14.80
2011,10,17,15,41,14.90
2011,10,17,15,42,15.00
2011,10,17,15,43,15.00
2011,10,17,15,44,15.00
2011,10,17,15,45,15.00
2011,10,17,15,46,15.00
2011,10,17,15,47,15.00
2011,10,17,15,48,15.00
2011,10,17,15,49,15.00
2011,10,17,15,50,15.00
2011,10,17,15,51,14.80
2011,10,17,15,52,14.70
2011,10,17,15,53,14.70
2011,10,17,15,54,14.70
2011,10,17,15,55,14.60
2011,10,17,15,56,14.70
2011,10,17,15,57,14.70
2011,10,17,15,58,14.70
2011,10,17,15,59,14.70
2011,10,17,16,00,14.70
2011,10,17,16,01,14.70
2011,10,17,16,02,14.70
2011,10,17,16,03,14.70
2011,10,17,16,04,14.70
2011,10,17,16,05,14.70
2011,10,17,16,06,14.70
2011,10,17,16,07,14.70
2011,10,17,16,08,14.80
2011,10,17,16,09,14.80
2011,10,17,16,10,14.90
2011,10,17,16,11,14.90
2011,10,17,16,12,14.90
2011,10,17,16,13,14.90
2011,10,17,16,14,15.00
2011,10,17,16,15,15.00
2011,10,17,16,16,15.00
2011,10,17,16,17,15.00
2011,10,17,16,18,15.00
2011,10,17,16,19,15.20
2011,10,17,16,20,15.30
2011,10,17,16,21,15.30
2011,10,17,16,22,15.40
2011,10,17,16,23,15.40
2011,10,17,16,24,15.50
2011,10,17,16,25,15.50
2011,10,17,16,26,15.50
2011,10,17,16,27,15.50
2011,10,17,16,28,15.40
2011,10,17,16,29,15.30
2011,10,17,16,30,15.30
2011,10,17,16,31,15.20
2011,10,17,16,32,15.10
2011,10,17,16,33,15.00
2011,10,17,16,34,15.00
2011,10,17,16,35,15.00
2011,10,17,16,36,15.00
2011,10,17,16,37,15.00
2011,10,17,16,38,14.90
2011,10,17,16,39,14.90
2011,10,17,16,40,15.00
2011,10,17,16,41,15.00
2011,10,17,16,42,15.00
2011,10,17,16,43,15.00
2011,10,17,16,44,15.00
2011,10,17,16,45,15.00
2011,10,17,16,46,15.00
2011,10,17,16,47,15.00
2011,10,17,16,48,15.00
2011,10,17,16,49,15.10
2011,10,17,16,50,15.10
2011,10,17,16,51,15.10
2011,10,17,16,52,15.00
2011,10,17,16,53,15.00
2011,10,17,16,54,15.00
2011,10,17,16,55,15.00
2011,10,17,16,56,15.00
2011,10,17,16,57,15.00
2011,10,17,16,58,15.00
2011,10,17,16,59,15.00
2011,10,17,17,00,15.00
2011,10,17,17,01,15.00
2011,10,17,17,02,15.00
2011,10,17,17,03,15.00
2011,10,17,17,04,15.00
2011,10,17,17,05,15.00
2011,10,17,17,06,15.00
2011,10,17,17,07,15.00
2011,10,17,17,08,15.00
2011,10,17,17,09,15.00
2011,10,17,17,10,15.00
2011,10,17,17,11,15.00
2011,10,17,17,12,15.10
2011,10,17,17,13,15.10
2011,10,17,17,14,15.20
2011,10,17,17,15,15.20
2011,10,17,17,16,15.20
2011,10,17,17,17,15.30
2011,10,17,17,18,15.30
2011,10,17,17,19,15.40
2011,10,17,17,20,15.40
2011,10,17,17,21,15.40
2011,10,17,17,22,15.40
2011,10,17,17,23,15.40
2011,10,17,17,24,15.40
2011,10,17,17,25,15.30
2011,10,17,17,26,15.30
2011,10,17,17,27,15.20
2011,10,17,17,28,15.20
2011,10,17,17,29,15.10
2011,10,17,17,30,15.00
2011,10,17,17,31,15.00
2011,10,17,17,32,15.00
2011,10,17,17,33,15.00
2011,10,17,17,34,15.00
2011,10,17,17,35,15.00
2011,10,17,17,36,15.00
2011,10,17,17,37,15.00
2011,10,17,17,38,15.00
2011,10,17,17,39,15.00
2011,10,17,17,40,15.00
2011,10,17,17,41,15.00
2011,10,17,17,42,15.00
2011,10,17,17,43,15.00
2011,10,17,17,44,15.00
2011,10,17,17,45,15.00
2011,10,17,17,46,14.90
2011,10,17,17,47,14.80
2011,10,17,17,48,14.70
2011,10,17,17,49,14.60
2011,10,17,17,50,14.50
2011,10,17,17,51,14.40
2011,10,17,17,52,14.30